This demonstration page uses our WeatherBlox Daily Observations layout. Learn more.

36.17497, -115.13722

Hourly Observations for August 12, 2018

Temp ( °F °C ) Dew Point ( °F °C ) Humidity (%) Winds ( mph kmh ) Pressure ( in mb ) Visibility ( mi km ) Precip ( " mm )
12:53 am 00:53 Clear 85 29.4 54 12.2 35 35 W 9 15 29.92 1013 10 16.0934 0 0
1:53 am 01:53 Clear 83 28.3 56 13.3 40 40 S 18 30 29.9 1012 10 16.0934 0 0
2:53 am 02:53 Clear 84 28.9 54 12.2 36 36 W 5 7 29.89 1012 10 16.0934 0 0
3:53 am 03:53 Clear 79 26.1 58 14.4 49 49 Calm 29.89 1012 10 16.0934 0 0
4:53 am 04:53 Clear 80 26.7 58 14.4 47 47 N 3 6 29.91 1013 10 16.0934 0 0
5:53 am 05:53 Clear 77 25 58 14.4 52 52 Calm 29.92 1013 10 16.0934 0 0
6:53 am 06:53 Sunny 78 25.6 60 15.6 54 54 S 5 7 29.95 1014 10 16.0934 0 0
7:53 am 07:53 Sunny 81 27.2 59 15 47 47 Calm 29.96 1015 10 16.0934 0 0
8:53 am 08:53 Sunny 85 29.4 56 13.3 37 37 VRB 5 7 29.97 1015 10 16.0934 0 0
9:53 am 09:53 Sunny 87 30.6 54 12.2 32 32 S 8 13 29.97 1015 10 16.0934 0 0
10:53 am 10:53 Sunny 89 31.7 56 13.3 33 33 SSE 8 13 29.97 1015 10 16.0934 0 0
11:53 am 11:53 Sunny 89 31.7 57 13.9 34 34 S 9 15 29.95 1014 10 16.0934 0 0
12:53 pm 12:53 Sunny 93 33.9 57 13.9 30 30 undefined N/A 29.92 1013 10 16.0934 0 0
1:53 pm 13:53 Sunny 98 36.7 54 12.2 23 23 S 9 15 29.88 1012 10 16.0934 0 0
2:53 pm 14:53 Sunny 101 38.3 48 8.9 17 17 SW 9 15 29.84 1011 10 16.0934 0 0
3:53 pm 15:53 Sunny 101 38.3 47 8.3 16 16 SSW 12 19 29.82 1010 10 16.0934 0 0
4:53 pm 16:53 Sunny 101 38.3 47 8.3 16 16 SW 10 17 29.8 1009 10 16.0934 0 0
5:53 pm 17:53 Sunny 100 37.8 48 8.9 17 17 S 9 15 29.79 1009 10 16.0934 0 0
6:53 pm 18:53 Sunny 99 37.2 47 8.3 17 17 SSW 12 19 29.78 1009 10 16.0934 0 0
7:53 pm 19:53 Clear 97 36.1 48 8.9 19 19 SW 9 15 29.8 1009 10 16.0934 0 0
8:53 pm 20:53 Clear 96 35.6 49 9.4 20 20 SSW 9 15 29.82 1010 10 16.0934 0 0
9:53 pm 21:53 Clear 94 34.4 49 9.4 21 21 SSW 7 11 29.83 1010 10 16.0934 0 0
10:53 pm 22:53 Clear 93 33.9 49 9.4 22 22 WSW 6 9 29.83 1010 10 16.0934 0 0
11:53 pm 23:53 Clear 90 32.2 51 10.6 26 26 NNW 6 9 29.84 1011 10 16.0934 0 0

Powered by AerisWeather